Location: Kitchener
(43.4500°N, 80.5000°W)
Time: 01:10:42
(UTC-05:00)

ATLAS 5 CENTAUR R/B - Visible Passes

Search period start: 29 November 2014 00:00
Search period end: 09 December 2014 00:00
Orbit: 709 x 953 km, 63.4° (Epoch: 26 November)

Date Brightness Start Highest point End Pass type
(mag) Time Alt. Az. Time Alt. Az. Time Alt. Az.
29 Nov 4.5 05:52:18 10° N 05:53:17 10° N 05:54:17 10° NNE visible
30 Nov 4.5 05:33:48 10° N 05:34:35 10° N 05:35:23 10° NNE visible
01 Dec 4.5 05:15:21 10° N 05:15:53 10° N 05:16:26 10° NNE visible
01 Dec 4.1 06:58:23 10° NNW 07:02:56 22° NNE 07:07:38 10° E visible
02 Dec 4.1 06:39:48 10° NNW 06:44:16 22° NNE 06:48:53 10° E visible
03 Dec 4.2 06:21:13 10° NNW 06:25:36 21° NNE 06:30:07 10° E visible
04 Dec 4.2 06:02:38 10° NNW 06:06:55 20° NNE 06:11:21 10° ENE visible
05 Dec 4.3 05:44:03 10° NNW 05:48:15 20° NNE 05:52:35 10° ENE visible
06 Dec 4.3 05:26:07 12° N 05:29:34 19° NNE 05:33:49 10° ENE visible
07 Dec 4.3 05:08:12 14° N 05:10:53 19° NNE 05:15:02 10° ENE visible
07 Dec 2.8 06:50:50 10° NNW 06:56:45 64° NE 07:02:56 10° SE visible
08 Dec 4.3 04:50:19 16° N 04:52:12 18° NNE 04:56:15 10° ENE visible
08 Dec 2.8 06:32:13 10° NNW 06:38:07 61° NE 06:44:17 10° SE visible
